Date String (YYYY-MM-DD hh:mm:ss) UTC,Instrument flags,absolute air pressure of the measurement (hPa),sample flow rate (lpm),inlet stack bypass flow (lpm),air temperature of the measurement (°C),ambient temperature measured by the external sensor (°C),aerosol sample conditioner tube jacket temperature (°C),OPC LED temperature (°C),internal box temperature (°C),relative humidity of the measurement (%),span deviation,mass concentration of particles derived from Lorenz-Mie calculation of OPC scattering (μg/m³),mass concentration of particles derived from Lorenz-Mie calculation of OPC scattering (μg/m³),mass concentration of particles derived from Lorenz-Mie calculation of OPC scattering (μg/m³)
DateTimeUTC,F1_M11,P_M11,Q1_M11,Q2_M11,T1_M11,T2_M11,T3_M11,T4_M11,T5_M11,U1_M11,ZSPAN_M11,X0_M11,X2_M11,X1_M11
2023-11-13 06:00:00,SystemResetWarning,0838.2,4.99,000.00,026.8,025.8,000.0,035.2,028.2,8.0,0000.0,0008.58,0003.50,0002.85
2023-11-13 06:01:00,SystemResetWarning,0838.2,5.00,000.00,026.8,025.8,000.0,035.2,028.2,8.0,0000.0,0008.63,0003.50,0002.85
2023-11-13 06:02:00,SystemResetWarning,0838.2,5.01,000.00,026.8,025.7,000.0,035.2,028.2,7.9,0000.0,0008.96,0003.54,0002.84
2023-11-13 06:03:00,SystemResetWarning,0838.1,5.00,000.00,026.8,025.7,000.0,035.2,028.2,7.9,0000.0,0009.77,0003.56,0002.84
2023-11-13 06:04:00,SystemResetWarning,0838.2,5.00,000.00,026.8,025.7,000.0,035.2,028.1,7.9,0000.0,0009.82,0003.55,0002.83
2023-11-13 06:05:00,SystemResetWarning,0838.1,5.00,000.00,026.8,025.7,000.0,035.2,028.1,7.9,0000.0,0009.40,0003.51,0002.83
2023-11-13 06:06:00,SystemResetWarning,0838.2,5.00,000.00,026.8,025.7,000.0,035.2,028.1,7.9,0000.0,0008.80,0003.57,0002.84
2023-11-13 06:07:00,SystemResetWarning,0838.1,5.00,000.00,026.8,025.7,000.0,035.2,028.1,7.9,0000.0,0008.91,0003.64,0002.86
2023-11-13 06:08:00,SystemResetWarning,0838.1,5.00,000.00,026.8,025.6,000.0,035.2,028.1,7.9,0000.0,0009.23,0003.67,0002.84
2023-11-13 06:09:00,SystemResetWarning,0838.1,5.00,000.00,026.8,025.6,000.0,035.2,028.1,7.9,0000.0,0008.87,0003.66,0002.81
2023-11-13 06:10:00,SystemResetWarning,0838.1,5.00,000.00,026.7,025.6,000.0,035.2,028.1,7.9,0000.0,0008.80,0003.64,0002.79
2023-11-13 06:11:00,SystemResetWarning,0838.1,4.99,000.00,026.7,025.6,000.0,035.1,028.1,7.9,0000.0,0008.96,0003.64,0002.78
2023-11-13 06:12:00,SystemResetWarning,0838.1,4.99,000.00,026.7,025.6,000.0,035.1,028.1,7.9,0000.0,0008.88,0003.61,0002.76
2023-11-13 06:13:00,SystemResetWarning,0838.0,5.00,000.00,026.7,025.6,000.0,035.1,028.1,7.9,0000.0,0008.61,0003.56,0002.73
2023-11-13 06:14:00,SystemResetWarning,0837.9,5.01,000.00,026.7,025.5,000.0,035.1,028.0,7.9,0000.0,0008.41,0003.55,0002.71
2023-11-13 06:15:00,SystemResetWarning,0837.9,5.01,000.00,026.7,025.5,000.0,035.1,028.0,7.9,0000.0,0009.23,0003.53,0002.68
2023-11-13 06:16:00,SystemResetWarning,0838.0,5.00,000.00,026.7,025.5,000.0,035.1,028.0,7.9,0000.0,0009.38,0003.51,0002.65
2023-11-13 06:17:00,SystemResetWarning,0838.0,5.00,000.00,026.6,025.4,000.0,035.1,028.0,7.9,0000.0,0010.17,0003.46,0002.62
2023-11-13 06:18:00,SystemResetWarning,0838.1,5.00,000.00,026.6,025.4,000.0,035.1,028.0,7.9,0000.0,0010.40,0003.40,0002.61
2023-11-13 06:19:00,SystemResetWarning,0838.2,5.00,000.00,026.6,025.4,000.0,035.1,028.0,7.9,0000.0,0010.28,0003.35,0002.58
2023-11-13 06:20:00,SystemResetWarning,0838.2,5.00,000.00,026.6,025.4,000.0,035.1,028.0,7.9,0000.0,0010.55,0003.33,0002.58
2023-11-13 06:21:00,SystemResetWarning,0838.2,5.00,000.00,026.6,025.4,000.0,035.0,027.9,7.9,0000.0,0010.73,0003.33,0002.56
2023-11-13 06:22:00,SystemResetWarning,0838.2,5.00,000.00,026.6,025.3,000.0,035.0,027.9,7.9,0000.0,0010.53,0003.31,0002.52
2023-11-13 06:23:00,SystemResetWarning,0838.2,5.00,000.00,026.6,025.3,000.0,035.0,027.9,7.9,0000.0,0010.54,0003.32,0002.50
2023-11-13 06:24:00,SystemResetWarning,0838.2,5.00,000.00,026.6,025.3,000.0,035.0,027.9,7.9,0000.0,0010.52,0003.31,0002.47
2023-11-13 06:25:00,SystemResetWarning,0838.2,5.00,000.00,026.5,025.3,000.0,035.0,027.9,7.9,0000.0,0009.94,0003.30,0002.46
2023-11-13 06:26:00,SystemResetWarning,0838.1,5.00,000.00,026.5,025.3,000.0,035.0,027.9,7.9,0000.0,0009.31,0003.31,0002.46
2023-11-13 06:27:00,SystemResetWarning,0838.2,5.00,000.00,026.5,025.3,000.0,035.0,027.9,7.9,0000.0,0009.61,0003.32,0002.46
2023-11-13 06:28:00,SystemResetWarning,0838.1,5.00,000.00,026.5,025.2,000.0,035.0,027.8,7.9,0000.0,0008.83,0003.32,0002.47
2023-11-13 06:29:00,SystemResetWarning,0838.2,5.00,000.00,026.5,025.2,000.0,035.0,027.8,7.9,0000.0,0008.54,0003.36,0002.44
2023-11-13 06:30:00,SystemResetWarning,0838.2,5.00,000.00,026.5,025.2,000.0,035.0,027.8,7.9,0000.0,0008.31,0003.36,0002.44
2023-11-13 06:31:00,SystemResetWarning,0838.2,5.00,000.00,026.5,025.2,000.0,034.9,027.8,8.0,0000.0,0007.98,0003.36,0002.45
2023-11-13 06:32:00,SystemResetWarning,0838.2,5.00,000.00,026.5,025.2,000.0,034.9,027.8,8.0,0000.0,0007.97,0003.36,0002.46
2023-11-13 06:33:00,SystemResetWarning,0838.2,5.01,000.00,026.4,025.2,000.0,034.9,027.8,8.0,0000.0,0007.97,0003.39,0002.48
2023-11-13 06:34:00,SystemResetWarning,0838.2,5.00,000.00,026.4,025.2,000.0,034.9,027.8,7.9,0000.0,0007.94,0003.39,0002.50
2023-11-13 06:35:00,SystemResetWarning,0838.2,5.00,000.00,026.4,025.1,000.0,034.9,027.7,7.9,0000.0,0007.87,0003.38,0002.51
2023-11-13 06:36:00,SystemResetWarning,0838.2,5.00,000.00,026.4,025.1,000.0,034.9,027.7,7.9,0000.0,0007.94,0003.40,0002.51
2023-11-13 06:37:00,SystemResetWarning,0838.2,5.00,000.00,026.4,025.1,000.0,034.9,027.7,7.9,0000.0,0007.82,0003.41,0002.52
2023-11-13 06:38:00,SystemResetWarning,0838.1,5.00,000.00,026.4,025.1,000.0,034.9,027.7,7.9,0000.0,0007.80,0003.40,0002.52
2023-11-13 06:39:00,SystemResetWarning,0838.1,5.00,000.00,026.4,025.1,000.0,034.9,027.7,7.9,0000.0,0008.22,0003.38,0002.51
2023-11-13 06:40:00,SystemResetWarning,0838.1,5.01,000.00,026.4,025.1,000.0,034.8,027.7,7.9,0000.0,0008.99,0003.32,0002.50
2023-11-13 06:41:00,SystemResetWarning,0838.2,5.00,000.00,026.3,025.1,000.0,034.8,027.7,7.9,0000.0,0009.08,0003.33,0002.50
2023-11-13 06:42:00,SystemResetWarning,0838.2,5.00,000.00,026.3,025.0,000.0,034.8,027.6,7.9,0000.0,0008.98,0003.34,0002.48
2023-11-13 06:43:00,SystemResetWarning,0838.2,5.00,000.00,026.3,025.0,000.0,034.8,027.6,7.9,0000.0,0008.77,0003.33,0002.48
2023-11-13 06:44:00,SystemResetWarning,0838.2,5.00,000.00,026.3,025.0,000.0,034.8,027.6,7.9,0000.0,0008.72,0003.31,0002.47
2023-11-13 06:45:00,SystemResetWarning,0838.2,4.99,000.00,026.3,025.0,000.0,034.8,027.6,7.9,0000.0,0008.61,0003.27,0002.45
2023-11-13 06:46:00,SystemResetWarning,0838.2,4.99,000.00,026.3,025.0,000.0,034.8,027.6,7.9,0000.0,0008.57,0003.26,0002.44
2023-11-13 06:47:00,SystemResetWarning,0838.2,5.00,000.00,026.3,025.0,000.0,034.7,027.6,7.9,0000.0,0008.52,0003.23,0002.43
2023-11-13 06:48:00,SystemResetWarning,0838.2,5.00,000.00,026.2,025.0,000.0,034.7,027.6,7.9,0000.0,0008.34,0003.18,0002.39
2023-11-13 06:49:00,SystemResetWarning,0838.2,5.01,000.00,026.2,025.0,000.0,034.7,027.6,7.9,0000.0,0007.88,0003.19,0002.37
2023-11-13 06:50:00,SystemResetWarning,0838.1,5.00,000.00,026.2,024.9,000.0,034.7,027.6,7.9,0000.0,0007.63,0003.21,0002.37
2023-11-13 06:51:00,SystemResetWarning,0838.0,5.00,000.00,026.2,024.9,000.0,034.7,027.5,7.9,0000.0,0007.08,0003.23,0002.37
2023-11-13 06:52:00,SystemResetWarning,0837.9,5.00,000.00,026.2,024.9,000.0,034.7,027.5,7.9,0000.0,0007.49,0003.23,0002.36
2023-11-13 06:53:00,SystemResetWarning,0837.9,5.00,000.00,026.2,024.9,000.0,034.7,027.5,7.9,0000.0,0007.77,0003.21,0002.35
2023-11-13 06:54:00,SystemResetWarning,0837.9,5.00,000.00,026.2,024.9,000.0,034.7,027.5,7.9,0000.0,0008.03,0003.19,0002.32
2023-11-13 06:55:00,SystemResetWarning,0837.9,5.00,000.00,026.1,024.9,000.0,034.6,027.5,7.9,0000.0,0008.09,0003.19,0002.32
2023-11-13 06:56:00,SystemResetWarning,0837.9,5.00,000.00,026.1,024.9,000.0,034.6,027.5,7.9,0000.0,0008.26,0003.21,0002.32
2023-11-13 06:57:00,SystemResetWarning,0837.9,5.00,000.00,026.1,024.8,000.0,034.6,027.4,7.9,0000.0,0008.57,0003.22,0002.31
2023-11-13 06:58:00,SystemResetWarning,0838.0,5.00,000.00,026.1,024.8,000.0,034.6,027.5,7.9,0000.0,0008.77,0003.21,0002.30
2023-11-13 06:59:00,SystemResetWarning,0838.0,5.00,000.00,026.1,024.8,000.0,034.6,027.5,7.9,0000.0,0008.80,0003.21,0002.30
